Weather Roundup
Issued by NWS

Home | Current Version | Previous Version | Graphics & Text | Print | Product List | Glossary On
Versions: 1 2 3 4 5 6 7 8 9 10 11 12 13 14 15 16 17 18 19 20 21 22 23 24 25 26 27 28 29 30 31 32 33 34 35 36 37 38 39 40 41 42 43 44 45 46 47 48 49 50
000
NZUS93 KARX 291710
HRRWXR

CURRENT HOURLY OBSERVATIONS ACROSS
MUCH OF THE UPPER MISSISSIPPI VALLEY
NATIONAL WEATHER SERVICE LA CROSSE WI
1200 PM CDT SUN MAR 29 2015


...SOUTHEAST MINNESOTA...


CITY           SKY/WX    TMP DP  RH WIND       PRES   REMARKS
ROCHESTER      PTSUNNY   40  36  86 SW14      29.65S WCI  32
ROCHESTER/MAYO CLOUDY    46  38  75 SW16G26   29.63S
WINONA         CLOUDY    43  34  70 SW15G23   29.64F
AUSTIN         CLOUDY    50  39  66 W21G26    29.67R
ALBERT LEA     CLOUDY    50  41  71 W15G33    29.70R
DODGE CENTER   CLOUDY    45  39  81 W24G30    29.63S
PRESTON        MOSUNNY   41  36  81 SW17      29.66F
OWATONNA       CLOUDY    45  37  76 W29G41    29.68R
FARIBAULT      DRIZZLE   43  37  81 W29G39    29.66R
$$

...ELSEWHERE IN MINNESOTA...


CITY           SKY/WX    TMP DP  RH WIND       PRES   REMARKS
MINNEAPOLIS    LGT RAIN  43  38  82 W32G44    29.60R
INTNL FALLS    CLOUDY    37  33  85 NW17G31   29.56R WCI  27
DULUTH         LGT SNOW  34  31  88 W13       29.47R VSB 1   WCI  25
RED WING       CLOUDY    46  37  71 W10       29.58S
REDWOOD FALLS  CLOUDY    46  36  68 NW25G40   29.78R
MANKATO        CLOUDY    45  36  70 NW24G39   29.71R
WORTHINGTON    CLOUDY   N/A N/A N/A NW38G48   29.84R
FAIRMONT       CLOUDY    48  36  61 NW25G39   29.77R
$$

...SOUTHWEST WISCONSIN...


CITY           SKY/WX    TMP DP  RH WIND       PRES   REMARKS
LA CROSSE      CLOUDY    41  34  76 S13G21    29.68F
PRAIRIE DU CHI CLOUDY    37  32  80 S3        29.78F
BOSCOBEL       CLOUDY    37  31  78 SW15G22   29.77F WCI  28
LONE ROCK      CLOUDY    35  30  82 SW13G21   29.78F WCI  26
PLATTEVILLE    CLOUDY    33  32  93 S9        29.81F WCI  26
FORT MC COY    CLOUDY    36  32  84 S12       29.67F WCI  28
CAMP DOUGLAS   CLOUDY    36  36 100 SW16G24   29.68F WCI  26
VIROQUA        CLOUDY    34  34 100 S15       29.69F WCI  24
WIS DELLS      CLOUDY    33  30  90 SW15      29.72F WCI  23
$$

...ELSEWHERE IN WISCONSIN...


CITY           SKY/WX    TMP DP  RH WIND       PRES   REMARKS
MILWAUKEE      LGT SNOW  35  26  69 S26G35    29.83F WCI  22
MADISON        CLOUDY    34  29  82 S17G28    29.79F WCI  23
GREEN BAY      LGT RAIN  34  30  85 S23G37    29.71F FOG     WCI  22
EAU CLAIRE     NOT AVBL
BLACK RVR FLS  CLOUDY    36  35  95 S12       29.64F WCI  28
MEDFORD        MIX PCPN  32  31  96 S14       29.56F WCI  22
WAUSAU         CLOUDY    32  30  92 S18G26    29.58F FOG     WCI  20
WIS RAPIDS     CLOUDY    34  29  82 SW17G28   29.66F WCI  23
MARSHFIELD     CLOUDY    34  31  88 S21G26    29.60F FOG     WCI  22
RICE LAKE      DRIZZLE   35  33  92 SW5       29.55S WCI  31
$$

...NORTHEAST IOWA...


CITY           SKY/WX    TMP DP  RH WIND       PRES   REMARKS
DECORAH        PTSUNNY   43  39  87 SW14G24   29.70F
MASON CITY     CLOUDY    54  40  59 W25G43    29.74R
CHARLES CITY   SUNNY     54  46  76 W24G33    29.72F
OELWEIN        PTSUNNY   48  43  81 SW22G30   29.76F
$$

...ELSEWHERE IN IOWA...


CITY           SKY/WX    TMP DP  RH WIND       PRES   REMARKS
DES MOINES     MOSUNNY   57  40  52 W24G36    29.87S
IOWA CITY      CLOUDY    43  37  79 SW17G24   29.87F
FORT DODGE     CLOUDY    57  39  51 NW17G33   29.82R
$$

...NORTHERN ILLINOIS...


CITY           SKY/WX    TMP DP  RH WIND       PRES   REMARKS
CHICAGO-OHARE  LGT RAIN  34  26  72 S24G32    29.92F WCI  21
CHICAGO-MIDWAY LGT RAIN  37  25  61 S22G32    29.95F WCI  26
MOLINE         PTSUNNY   38  31  76 SW18G32   29.89F WCI  28
ROCKFORD       LGT RAIN  33  27  78 S23G32    29.91F WCI  21
PEORIA         CLOUDY    37  28  70 S22G29    29.98R WCI  26
$$

NOTE: "FAIR" INDICATES FEW OR NO CLOUDS BELOW 12,000 FEET WITH NO
SIGNIFICANT WEATHER AND/OR OBSTRUCTIONS TO VISIBILITY. WIND
SPEEDS ARE IN MILES-PER-HOUR.



USA.gov is the U.S. government's official web portal to all federal, state and local government web resources and services.